Location: Aufkirchen
(47.9603°N, 11.3653°E)
Time: 15:53:23
(UTC+01:00)

N. Korean satellite - Visible Passes

Search period start: 09 December 2021 00:00
Search period end: 19 December 2021 00:00
Orbit: 446 x 495 km, 97.3° (Epoch: 08 December)

Date Brightness Start Highest point End Pass type
(mag) Time Alt. Az. Time Alt. Az. Time Alt. Az.
09 Dec 8.4 05:01:17 10° NE 05:04:17 29° E 05:07:16 10° SSE visible
09 Dec 7.7 06:34:48 10° NNW 06:37:19 20° WNW 06:39:49 10° WSW visible
09 Dec 8.6 17:11:35 10° SSW 17:14:43 31° W 17:17:49 10° NNW visible
10 Dec 9.6 04:35:35 14° E 04:35:35 14° E 04:37:21 10° ESE visible
10 Dec 7.1 06:05:43 10° N 06:09:43 34° WSW 06:12:07 10° SW visible
11 Dec 7.4 05:37:02 10° NNE 05:41:40 37° S 05:43:48 10° SSW visible
11 Dec 9.9 17:49:35 10° WSW 17:51:01 12° W 17:52:28 10° WNW visible
12 Dec 8.5 05:13:20 23° SSE 05:13:20 23° SSE 05:14:57 10° SSE visible
12 Dec8.806:47:27WSW06:47:27WSW06:42:23NNWvisible
12 Dec 9.0 17:19:20 10° SSW 17:22:14 25° W 17:25:09 10° NW visible
13 Dec 9.6 04:44:53 12° SE 04:44:53 12° SE 04:45:21 10° SE visible
13 Dec 8.6 06:18:59 13° SW 06:18:59 13° SW 06:19:27 10° SW visible
14 Dec 8.5 05:50:28 16° SSW 05:50:28 16° SSW 05:51:16 10° SSW visible
15 Dec 9.0 05:21:54 15° S 05:21:54 15° S 05:22:33 10° S visible
15 Dec9.306:56:00WSW06:56:00WSW06:48:55NNWvisible
15 Dec 9.4 17:27:06 10° SW 17:29:44 20° W 17:32:22 10° NW visible
16 Dec9.604:53:19SE04:53:19SE04:45:46NNEvisible
16 Dec9.206:27:24SW06:27:24SW06:19:50Nvisible
16 Dec 7.8 16:57:43 10° S 17:01:01 44° W 17:04:18 10° NNW visible
17 Dec9.105:58:45SSW05:58:45SSW05:50:47Nvisible
18 Dec 9.3 05:30:05 10° S 05:30:05 10° S 05:21:45 - NNE visible
18 Dec 9.6 17:34:53 10° SW 17:37:10 17° W 17:39:28 10° NW visible
